TimeEST,TemperatureF,Dew PointF,Humidity,Sea Level PressureIn,VisibilityMPH,Wind Direction,Wind SpeedMPH,Gust SpeedMPH,PrecipitationIn,Events,Conditions,WindDirDegrees,DateUTC
12:54 AM,27.0,21.9,81,30.20,10.0,SSW,12.7,-,N/A,,Mostly Cloudy,200,2013-01-08 05:54:00
1:54 AM,25.0,21.0,85,30.22,10.0,SW,6.9,-,N/A,,Mostly Cloudy,230,2013-01-08 06:54:00
2:54 AM,23.0,19.9,88,30.24,10.0,SSW,9.2,-,N/A,,Mostly Cloudy,210,2013-01-08 07:54:00
3:54 AM,21.9,19.0,89,30.23,8.0,SSW,8.1,-,N/A,,Overcast,200,2013-01-08 08:54:00
4:54 AM,21.9,19.0,89,30.23,9.0,SSW,5.8,-,N/A,,Overcast,200,2013-01-08 09:54:00
5:54 AM,21.9,19.0,89,30.23,8.0,SSW,8.1,-,N/A,,Overcast,210,2013-01-08 10:54:00
6:54 AM,21.9,19.0,89,30.24,8.0,South,4.6,-,N/A,,Mostly Cloudy,190,2013-01-08 11:54:00
7:54 AM,21.9,19.0,89,30.25,7.0,South,4.6,-,N/A,,Mostly Cloudy,180,2013-01-08 12:54:00
8:54 AM,23.0,19.0,85,30.27,6.0,SSW,9.2,-,N/A,,Mostly Cloudy,200,2013-01-08 13:54:00
9:54 AM,26.1,21.9,84,30.29,7.0,SSW,5.8,-,N/A,,Mostly Cloudy,200,2013-01-08 14:54:00
10:54 AM,28.9,24.1,82,30.31,8.0,SSW,4.6,-,N/A,,Mostly Cloudy,210,2013-01-08 15:54:00
11:54 AM,32.0,26.1,79,30.28,8.0,SSW,6.9,-,N/A,,Mostly Cloudy,210,2013-01-08 16:54:00
12:54 PM,34.0,27.0,75,30.25,9.0,SSW,10.4,-,N/A,,Overcast,210,2013-01-08 17:54:00
1:54 PM,36.0,28.0,73,30.25,10.0,SSW,9.2,-,N/A,,Mostly Cloudy,200,2013-01-08 18:54:00
2:54 PM,37.9,28.0,68,30.24,10.0,South,8.1,-,N/A,,Mostly Cloudy,170,2013-01-08 19:54:00
3:54 PM,37.0,28.0,70,30.25,10.0,South,8.1,-,N/A,,Scattered Clouds,180,2013-01-08 20:54:00
4:54 PM,37.0,28.9,73,30.25,8.0,South,8.1,-,N/A,,Mostly Cloudy,170,2013-01-08 21:54:00
5:54 PM,34.0,27.0,75,30.25,8.0,SSE,6.9,-,N/A,,Partly Cloudy,150,2013-01-08 22:54:00
6:54 PM,32.0,26.1,79,30.25,8.0,SSE,6.9,-,N/A,,Partly Cloudy,150,2013-01-08 23:54:00
7:54 PM,30.9,26.1,82,30.24,6.0,SSE,6.9,-,N/A,,Haze,160,2013-01-09 00:54:00
8:54 PM,30.0,25.0,82,30.23,8.0,South,6.9,-,N/A,,Partly Cloudy,170,2013-01-09 01:54:00
9:54 PM,30.9,25.0,79,30.22,10.0,SSW,4.6,-,N/A,,Scattered Clouds,210,2013-01-09 02:54:00
10:54 PM,30.0,25.0,82,30.21,9.0,SSW,8.1,-,N/A,,Scattered Clouds,200,2013-01-09 03:54:00
11:54 PM,30.9,25.0,79,30.21,10.0,SSW,10.4,-,N/A,,Mostly Cloudy,200,2013-01-09 04:54:00